• In Romania
  • List of Countries
  • For 7 days
  • Water Temperature
  • Satellite Maps
  • Weather Map
  • Weather Widgets
  • user-avatar
    Login

    Hourly Weather Kalgoorlie

    Today, 26 March, Sunday

    Time Temperature Precipitation Wind Pressure Humidity
    00:00 +20°C° 0 mm 2 mps 725 mmHg 93%
    01:00 +20°C° 0 mm 2 mps 724 mmHg 94%
    02:00 +20°C° 0 mm 2 mps 724 mmHg 95%
    03:00 +20°C° 0 mm 2 mps 724 mmHg 95%
    04:00 +20°C° 0 mm 3 mps 724 mmHg 95%
    05:00 +20°C° 0 mm 3 mps 724 mmHg 95%
    06:00 +21°C° 0 mm 4 mps 725 mmHg 90%
    07:00 +22°C° 0 mm 6 mps 725 mmHg 85%
    08:00 +23°C° 0 mm 7 mps 725 mmHg 78%
    09:00 +24°C° 0 mm 8 mps 725 mmHg 70%
    10:00 +26°C° 0 mm 8 mps 725 mmHg 62%
    11:00 +26°C° 0 mm 8 mps 726 mmHg 55%
    12:00 +27°C° 0 mm 9 mps 726 mmHg 49%
    13:00 +27°C° 0 mm 9 mps 726 mmHg 43%
    14:00 +28°C° 0 mm 9 mps 726 mmHg 38%
    15:00 +27°C° 0 mm 9 mps 727 mmHg 39%
    16:00 +26°C° 0 mm 8 mps 727 mmHg 41%
    17:00 +24°C° 0 mm 8 mps 728 mmHg 43%
    18:00 +22°C° 0 mm 7 mps 728 mmHg 45%
    19:00 +21°C° 0 mm 5 mps 729 mmHg 47%
    20:00 +20°C° 0 mm 4 mps 730 mmHg 50%
    21:00 +19°C° 0 mm 4 mps 730 mmHg 50%
    22:00 +18°C° 0 mm 3 mps 730 mmHg 51%
    23:00 +18°C° 0 mm 3 mps 731 mmHg 52%

    Tomorrow, 27 March, Monday

    Time Temperature Precipitation Wind Pressure Humidity
    00:00 +17°C° 0 mm 3 mps 731 mmHg 54%
    01:00 +16°C° 0 mm 3 mps 731 mmHg 55%
    02:00 +15°C° 0 mm 4 mps 731 mmHg 56%
    03:00 +14°C° 0 mm 4 mps 732 mmHg 59%
    04:00 +13°C° 0 mm 3 mps 732 mmHg 62%
    05:00 +13°C° 0 mm 3 mps 733 mmHg 64%
    06:00 +13°C° 0 mm 3 mps 733 mmHg 62%
    07:00 +14°C° 0 mm 3 mps 734 mmHg 60%
    08:00 +14°C° 0 mm 3 mps 734 mmHg 58%
    09:00 +17°C° 0 mm 3 mps 734 mmHg 51%
    10:00 +18°C° 0 mm 2 mps 734 mmHg 45%
    11:00 +20°C° 0 mm 2 mps 734 mmHg 39%
    12:00 +21°C° 0 mm 2 mps 733 mmHg 35%
    13:00 +23°C° 0 mm 1 mps 733 mmHg 31%
    14:00 +24°C° 0 mm 1 mps 732 mmHg 27%
    15:00 +24°C° 0 mm 1 mps 732 mmHg 27%
    16:00 +24°C° 0 mm 1 mps 732 mmHg 26%
    17:00 +24°C° 0 mm 2 mps 731 mmHg 26%
    18:00 +23°C° 0 mm 2 mps 732 mmHg 29%
    19:00 +21°C° 0 mm 2 mps 732 mmHg 32%
    20:00 +19°C° 0 mm 3 mps 732 mmHg 35%
    21:00 +19°C° 0 mm 3 mps 732 mmHg 37%
    22:00 +18°C° 0 mm 3 mps 732 mmHg 39%
    23:00 +18°C° 0 mm 3 mps 731 mmHg 40%

    Day after tomorrow, 28 March, Tuesday

    Time Temperature Precipitation Wind Pressure Humidity
    00:00 +17°C° 0 mm 2 mps 731 mmHg 42%
    01:00 +17°C° 0 mm 2 mps 731 mmHg 44%
    02:00 +16°C° 0 mm 2 mps 731 mmHg 46%
    03:00 +16°C° 0 mm 2 mps 731 mmHg 48%
    04:00 +16°C° 0 mm 2 mps 731 mmHg 49%
    05:00 +16°C° 0 mm 2 mps 731 mmHg 51%
    06:00 +17°C° 0 mm 2 mps 731 mmHg 48%
    07:00 +18°C° 0 mm 2 mps 731 mmHg 46%
    08:00 +19°C° 0 mm 2 mps 731 mmHg 43%
    09:00 +21°C° 0 mm 3 mps 731 mmHg 39%
    10:00 +24°C° 0 mm 3 mps 731 mmHg 34%
    11:00 +26°C° 0 mm 3 mps 731 mmHg 30%
    12:00 +27°C° 0 mm 3 mps 730 mmHg 28%
    13:00 +28°C° 0 mm 3 mps 730 mmHg 25%
    14:00 +29°C° 0 mm 3 mps 729 mmHg 23%
    15:00 +29°C° 0 mm 2 mps 729 mmHg 24%
    16:00 +29°C° 0 mm 2 mps 729 mmHg 25%
    17:00 +28°C° 0 mm 1 mps 729 mmHg 26%
    18:00 +27°C° 0 mm 2 mps 729 mmHg 29%
    19:00 +25°C° 0 mm 2 mps 729 mmHg 32%
    20:00 +24°C° 0 mm 2 mps 729 mmHg 35%
    21:00 +22°C° 0 mm 3 mps 730 mmHg 37%
    22:00 +21°C° 0 mm 4 mps 730 mmHg 39%
    23:00 +20°C° 0 mm 5 mps 731 mmHg 42%

    29 March, Wednesday

    Time Temperature Precipitation Wind Pressure Humidity
    00:00 +19°C° 0 mm 6 mps 731 mmHg 52%
    01:00 +17°C° 0 mm 6 mps 731 mmHg 63%
    02:00 +15°C° 0 mm 7 mps 731 mmHg 74%
    03:00 +15°C° 0 mm 7 mps 731 mmHg 75%
    04:00 +15°C° 0 mm 6 mps 732 mmHg 77%
    05:00 +14°C° 0 mm 6 mps 732 mmHg 78%
    06:00 +15°C° 0 mm 6 mps 733 mmHg 77%
    07:00 +15°C° 0 mm 7 mps 734 mmHg 76%
    08:00 +15°C° 0 mm 7 mps 735 mmHg 74%
    09:00 +16°C° 0 mm 7 mps 735 mmHg 69%
    10:00 +17°C° 0 mm 7 mps 735 mmHg 64%
    11:00 +18°C° 0 mm 8 mps 735 mmHg 59%
    12:00 +20°C° 0 mm 7 mps 735 mmHg 51%
    13:00 +22°C° 0 mm 7 mps 735 mmHg 44%
    14:00 +23°C° 0 mm 7 mps 734 mmHg 36%
    15:00 +22°C° 0 mm 7 mps 734 mmHg 36%
    16:00 +22°C° 0 mm 7 mps 735 mmHg 36%
    17:00 +21°C° 0 mm 7 mps 735 mmHg 36%
    18:00 +20°C° 0 mm 6 mps 735 mmHg 40%
    19:00 +17°C° 0 mm 6 mps 736 mmHg 45%
    20:00 +16°C° 0 mm 6 mps 737 mmHg 50%
    21:00 +15°C° 0 mm 6 mps 737 mmHg 54%
    22:00 +15°C° 0 mm 6 mps 737 mmHg 58%
    23:00 +14°C° 0 mm 6 mps 737 mmHg 62%

    30 March, Thursday

    Time Temperature Precipitation Wind Pressure Humidity
    00:00 +13°C° 0 mm 6 mps 737 mmHg 65%
    01:00 +11°C° 0 mm 6 mps 737 mmHg 69%
    02:00 +11°C° 0 mm 6 mps 737 mmHg 72%
    03:00 +10°C° 0 mm 6 mps 737 mmHg 74%
    04:00 +10°C° 0 mm 5 mps 737 mmHg 75%
    05:00 +9°C° 0 mm 5 mps 737 mmHg 76%
    06:00 +10°C° 0 mm 5 mps 737 mmHg 74%
    07:00 +11°C° 0 mm 6 mps 737 mmHg 71%
    08:00 +11°C° 0 mm 6 mps 738 mmHg 69%
    09:00 +14°C° 0 mm 6 mps 737 mmHg 61%
    10:00 +16°C° 0 mm 6 mps 737 mmHg 53%
    11:00 +17°C° 0 mm 6 mps 737 mmHg 44%
    12:00 +20°C° 0 mm 5 mps 736 mmHg 40%
    13:00 +21°C° 0 mm 5 mps 735 mmHg 36%
    14:00 +22°C° 0 mm 4 mps 735 mmHg 32%
    15:00 +22°C° 0 mm 4 mps 735 mmHg 32%
    16:00 +22°C° 0 mm 4 mps 735 mmHg 33%
    17:00 +21°C° 0 mm 4 mps 735 mmHg 33%
    18:00 +20°C° 0 mm 4 mps 735 mmHg 38%
    19:00 +19°C° 0 mm 3 mps 736 mmHg 42%
    20:00 +18°C° 0 mm 3 mps 736 mmHg 46%
    21:00 +17°C° 0 mm 3 mps 736 mmHg 49%
    22:00 +16°C° 0 mm 3 mps 736 mmHg 51%
    23:00 +16°C° 0 mm 3 mps 736 mmHg 54%

    31 March, Friday

    Time Temperature Precipitation Wind Pressure Humidity
    00:00 +14°C° 0 mm 3 mps 735 mmHg 56%
    01:00 +14°C° 0 mm 3 mps 735 mmHg 57%
    02:00 +13°C° 0 mm 3 mps 735 mmHg 59%
    03:00 +13°C° 0 mm 3 mps 735 mmHg 62%
    04:00 +12°C° 0 mm 3 mps 735 mmHg 64%
    05:00 +12°C° 0 mm 3 mps 735 mmHg 67%
    06:00 +13°C° 0 mm 4 mps 736 mmHg 64%
    07:00 +14°C° 0 mm 4 mps 736 mmHg 62%
    08:00 +14°C° 0 mm 4 mps 736 mmHg 59%
    09:00 +17°C° 0 mm 4 mps 736 mmHg 52%
    10:00 +19°C° 0 mm 4 mps 736 mmHg 45%
    11:00 +21°C° 0 mm 3 mps 736 mmHg 38%
    12:00 +22°C° 0 mm 3 mps 735 mmHg 35%
    13:00 +24°C° 0 mm 3 mps 735 mmHg 32%
    14:00 +25°C° 0 mm 3 mps 734 mmHg 29%
    15:00 +24°C° 0 mm 3 mps 734 mmHg 29%
    16:00 +23°C° 0 mm 4 mps 734 mmHg 30%
    17:00 +23°C° 0 mm 4 mps 734 mmHg 30%
    18:00 +22°C° 0 mm 4 mps 734 mmHg 35%
    19:00 +20°C° 0 mm 4 mps 735 mmHg 39%
    20:00 +19°C° 0 mm 4 mps 735 mmHg 43%
    21:00 +18°C° 0 mm 4 mps 735 mmHg 46%
    22:00 +18°C° 0 mm 4 mps 735 mmHg 49%
    23:00 +17°C° 0 mm 4 mps 735 mmHg 52%
    Show more